| time (UTC) | temp F | wind direction | speed MPH | gust MPH | rain 1hr in | rain 24hr in | rain mn in | humidity % | barometer mb |
| 20260506191558 | 42 | 279 | 0.0 | 0.0 | 0.00 | 0.00 | 0.00 | 96 | 1003.4 |
| 20260506190057 | 41 | 275 | 0.0 | 0.0 | 0.00 | 0.00 | 0.00 | 96 | 1003.5 |
| 20260506184557 | 41 | 270 | 0.0 | 1.0 | 0.00 | 0.00 | 0.00 | 96 | 1003.6 |
| 20260506183104 | 41 | 258 | 0.0 | 0.0 | 0.00 | 0.00 | 0.00 | 96 | 1003.6 |
| 20260506181558 | 41 | 307 | 0.0 | 1.0 | 0.00 | 0.00 | 0.00 | 96 | 1004.0 |
| 20260506180055 | 41 | 290 | 0.0 | 0.0 | 0.00 | 0.00 | 0.00 | 96 | 1003.8 |
| 20260506174554 | 40 | 296 | 0.0 | 0.0 | 0.00 | 0.00 | 0.00 | 96 | 1004.1 |
| 20260506173059 | 40 | 248 | 0.0 | 0.0 | 0.00 | 0.00 | 0.00 | 96 | 1004.1 |
| 20260506171553 | 40 | 286 | 0.0 | 1.0 | 0.00 | 0.00 | 0.00 | 96 | 1004.6 |
| 20260506170106 | 40 | 282 | 0.0 | 0.0 | 0.00 | 0.00 | 0.00 | 96 | 1004.0 |
| 20260506164610 | 40 | 298 | 0.0 | 3.0 | 0.00 | 0.00 | 0.00 | 95 | 1004.4 |
| 20260506163100 | 40 | 224 | 0.0 | 8.0 | 0.00 | 0.00 | 0.00 | 95 | 1003.6 |
| 20260506161550 | 41 | 300 | 0.0 | 4.0 | 0.00 | 0.00 | 0.00 | 95 | 1003.8 |
| 20260506160056 | 42 | 284 | 0.0 | 0.0 | 0.00 | 0.00 | 0.00 | 95 | 1003.6 |
| 20260506154553 | 42 | 337 | 0.0 | 0.0 | 0.00 | 0.00 | 0.00 | 95 | 1003.9 |
| 20260506153048 | 42 | 300 | 0.0 | 0.0 | 0.00 | 0.00 | 0.00 | 95 | 1004.0 |
| 20260506151548 | 42 | 308 | 0.0 | 0.0 | 0.00 | 0.00 | 0.00 | 95 | 1004.2 |
| 20260506150059 | 43 | 185 | 0.0 | 0.0 | 0.00 | 0.00 | 0.00 | 96 | 1004.3 |
| 20260506144545 | 42 | 5 | 0.0 | 0.0 | 0.00 | 0.00 | 0.00 | 95 | 1004.1 |
| 20260506143045 | 42 | 248 | 0.0 | 0.0 | 0.00 | 0.00 | 0.00 | 96 | 1004.2 |
| 20260506141546 | 42 | 239 | 0.0 | 0.0 | 0.00 | 0.00 | 0.00 | 96 | 1004.3 |
| 20260506140045 | 41 | 210 | 0.0 | 0.0 | 0.00 | 0.00 | 0.00 | 95 | 1004.6 |
| 20260506134544 | 42 | 243 | 0.0 | 0.0 | 0.00 | 0.00 | 0.00 | 95 | 1004.1 |
| 20260506133054 | 42 | 163 | 0.0 | 1.0 | 0.00 | 0.00 | 0.00 | 95 | 1003.9 |
| 20260506131539 | 43 | 296 | 0.0 | 4.0 | 0.00 | 0.00 | 0.00 | 95 | 1005.0 |
| 20260506130037 | 44 | 189 | 0.0 | 0.0 | 0.00 | 0.00 | 0.00 | 96 | 1004.5 |
| 20260506124537 | 44 | 297 | 0.0 | 0.0 | 0.00 | 0.00 | 0.00 | 95 | 1005.1 |
| 20260506123036 | 44 | 300 | 0.0 | 0.0 | 0.00 | 0.00 | 0.00 | 95 | 1005.4 |
| 20260506121534 | 44 | 301 | 0.0 | 2.0 | 0.00 | 0.00 | 0.00 | 95 | 1005.4 |
| 20260506120056 | 44 | 285 | 0.0 | 0.0 | 0.00 | 0.00 | 0.00 | 95 | 1005.3 |
| 20260506114540 | 44 | 113 | 0.0 | 0.0 | 0.00 | 0.00 | 0.00 | 95 | 1005.0 |
| 20260506113040 | 44 | 113 | 0.0 | 0.0 | 0.00 | 0.00 | 0.00 | 95 | 1004.7 |
| 20260506111544 | 45 | 113 | 0.0 | 0.0 | 0.00 | 0.00 | 0.00 | 95 | 1004.8 |
| 20260506110031 | 45 | 202 | 0.0 | 0.0 | 0.00 | 0.00 | 0.00 | 95 | 1004.6 |
| 20260506104539 | 45 | 311 | 0.0 | 0.0 | 0.00 | 0.00 | 0.00 | 95 | 1004.8 |
| 20260506103039 | 46 | 311 | 0.0 | 0.0 | 0.00 | 0.00 | 0.00 | 96 | 1005.2 |
| 20260506101528 | 45 | 311 | 0.0 | 0.0 | 0.00 | 0.00 | 0.00 | 95 | 1004.9 |
| 20260506100025 | 46 | 325 | 0.0 | 0.0 | 0.00 | 0.00 | 0.00 | 95 | 1005.3 |
| 20260506094523 | 46 | 288 | 0.0 | 0.0 | 0.00 | 0.00 | 0.00 | 95 | 1005.4 |
| 20260506093022 | 47 | 355 | 0.0 | 0.0 | 0.00 | 0.00 | 0.00 | 95 | 1005.0 |
| 20260506091521 | 47 | 255 | 0.0 | 0.0 | 0.00 | 0.00 | 0.00 | 95 | 1005.4 |
| 20260506090020 | 47 | 255 | 0.0 | 0.0 | 0.00 | 0.00 | 0.00 | 96 | 1005.6 |
| 20260506084541 | 47 | 250 | 0.0 | 0.0 | 0.00 | 0.00 | 0.00 | 96 | 1005.6 |
| 20260506083019 | 47 | 318 | 0.0 | 0.0 | 0.00 | 0.00 | 0.00 | 95 | 1005.4 |
| 20260506081523 | 47 | 314 | 0.0 | 0.0 | 0.00 | 0.00 | 0.00 | 95 | 1005.6 |
| 20260506073017 | 47 | 272 | 0.0 | 1.0 | 0.00 | 0.00 | 0.00 | 95 | 1005.1 |
| 20260506071517 | 48 | 290 | 0.0 | 1.0 | 0.00 | 0.00 | 0.00 | 95 | 1005.2 |
| 20260506061515 | 48 | 299 | 0.0 | 1.0 | 0.00 | 0.00 | 0.00 | 94 | 1005.4 |
| 20260506044508 | 49 | 293 | 0.0 | 1.0 | 0.00 | 0.00 | 0.00 | 93 | 1005.3 |
| 20260506043007 | 49 | 294 | 0.0 | 0.0 | 0.00 | 0.00 | 0.00 | 93 | 1005.4 |
| 20260506041505 | 49 | 261 | 0.0 | 0.0 | 0.00 | 0.00 | 0.00 | 93 | 1005.3 |
| 20260506040006 | 50 | 296 | 0.0 | 4.0 | 0.00 | 0.00 | 0.00 | 92 | 1005.1 |
| 20260506034600 | 51 | 298 | 0.0 | 1.0 | 0.00 | 0.00 | 0.00 | 92 | 1004.7 |
| 20260506033100 | 51 | 298 | 0.0 | 4.0 | 0.00 | 0.00 | 0.00 | 91 | 1004.5 |
| 20260506031556 | 53 | 299 | 0.0 | 0.0 | 0.00 | 0.00 | 0.00 | 91 | 1004.7 |
| 20260506030052 | 54 | 290 | 0.0 | 2.0 | 0.00 | 0.00 | 0.00 | 91 | 1004.1 |
| 20260506024551 | 56 | 300 | 0.0 | 5.0 | 0.00 | 0.00 | 0.00 | 86 | 1004.2 |
| 20260506023104 | 57 | 284 | 0.0 | 0.0 | 0.00 | 0.00 | 0.00 | 85 | 1004.2 |
| 20260506021610 | 57 | 315 | 0.0 | 0.0 | 0.00 | 0.00 | 0.00 | 85 | 1004.1 |
| 20260506020051 | 56 | 313 | 0.0 | 0.0 | 0.00 | 0.00 | 0.00 | 85 | 1003.9 |
| 20260506014551 | 57 | 5 | 0.0 | 0.0 | 0.00 | 0.00 | 0.00 | 85 | 1003.6 |
| 20260506013100 | 57 | 133 | 0.0 | 0.0 | 0.00 | 0.00 | 0.00 | 85 | 1003.6 |
| 20260506011611 | 57 | 13 | 0.0 | 0.0 | 0.00 | 0.00 | 0.00 | 84 | 1003.4 |
| 20260506010058 | 57 | 325 | 0.0 | 1.0 | 0.00 | 0.00 | 0.00 | 84 | 1003.2 |
| 20260506004554 | 57 | 152 | 0.0 | 0.0 | 0.00 | 0.00 | 0.00 | 85 | 1003.1 |
| 20260506003056 | 57 | 144 | 0.0 | 0.0 | 0.00 | 0.00 | 0.00 | 87 | 1003.1 |
| 20260506001556 | 56 | 78 | 0.0 | 1.0 | 0.00 | 0.00 | 0.00 | 89 | 1003.2 |
| 20260506000049 | 56 | 96 | 0.0 | 0.0 | 0.00 | 0.00 | 0.00 | 89 | 1003.1 |
| 20260505234647 | 56 | 117 | 0.0 | 3.0 | 0.00 | 0.00 | 0.00 | 90 | 1003.0 |
| 20260505230042 | 56 | 193 | 0.0 | 1.0 | 0.00 | 0.00 | 0.00 | 91 | 1002.3 |
| 20260505224542 | 56 | 186 | 0.0 | 0.0 | 0.00 | 0.00 | 0.00 | 92 | 1002.8 |
| 20260505223042 | 57 | 142 | 0.0 | 0.0 | 0.00 | 0.00 | 0.00 | 91 | 1002.3 |
| 20260505221541 | 57 | 117 | 0.0 | 0.0 | 0.00 | 0.00 | 0.00 | 90 | 1001.7 |
| 20260505220042 | 57 | 173 | 0.0 | 0.0 | 0.00 | 0.00 | 0.00 | 91 | 1001.9 |
| 20260505214551 | 57 | 157 | 0.0 | 1.0 | 0.00 | 0.00 | 0.00 | 91 | 1002.1 |
| 20260505213040 | 57 | 360 | 0.0 | 1.0 | 0.00 | 0.00 | 0.00 | 91 | 1001.9 |
| 20260505211535 | 57 | 298 | 0.0 | 0.0 | 0.00 | 0.00 | 0.00 | 92 | 1002.3 |
| 20260505210031 | 57 | 291 | 0.0 | 0.0 | 0.00 | 0.00 | 0.00 | 91 | 1002.0 |
| 20260505204530 | 58 | 158 | 0.0 | 11.0 | 0.00 | 0.00 | 0.00 | 85 | 1000.9 |
| 20260505203049 | 58 | 160 | 0.0 | 7.0 | 0.00 | 0.00 | 0.00 | 85 | 1000.9 |
| 20260505201533 | 57 | 49 | 0.0 | 10.0 | 0.00 | 0.00 | 0.00 | 87 | 1001.3 |
| 20260505200029 | 57 | 267 | 2.0 | 15.0 | 0.00 | 0.00 | 0.00 | 87 | 1001.0 |
| 20260505194526 | 60 | 312 | 1.0 | 12.0 | 0.00 | 0.00 | 0.00 | 80 | 1000.2 |
| 20260505193030 | 64 | 309 | 0.0 | 17.0 | 0.00 | 0.00 | 0.00 | 66 | 1000.2 |